TKJ59R LTAC-LTCG

Flight info

Callsign TKJ59R
Flight time 0h 53m
Altitude 27000
Route ILHAN W71 ERGUN/N0447F350 UW71 TEMEL
Aircraft B738/M-SDE2E3FGHIRWXY/LB1

Departure

Time 2026-05-04 18:52
Airport Esenboğa International Airport (LTAC)

Arrival

Time 2026-05-04 19:45
Airport Trabzon International Airport (LTCG)
Time Latitude Longitude Altitude Speed Heading
2026-05-04 18:37 40.11557 32.99033 3112 ft 0 kts 138°
2026-05-04 18:45 40.11561 32.99028 3112 ft 4 kts 137°
2026-05-04 18:45 40.11571 32.99016 3112 ft 4 kts 138°
2026-05-04 18:46 40.11581 32.99005 3112 ft 4 kts 143°
2026-05-04 18:46 40.11592 32.98994 3112 ft 4 kts 147°
2026-05-04 18:46 40.11604 32.98985 3112 ft 4 kts 152°
2026-05-04 18:46 40.11615 32.98977 3112 ft 3 kts 153°
2026-05-04 18:47 40.11620 32.98974 3112 ft 1 kts 153°
2026-05-04 18:47 40.11623 32.98972 3112 ft 0 kts 153°
2026-05-04 18:49 40.11617 32.98973 3112 ft 4 kts 174°
2026-05-04 18:49 40.11596 32.98967 3112 ft 8 kts 203°
2026-05-04 18:49 40.11589 32.98960 3112 ft 0 kts 220°
2026-05-04 18:50 40.11567 32.98930 3112 ft 25 kts 226°
2026-05-04 18:50 40.11473 32.98820 3112 ft 41 kts 218°
2026-05-04 18:50 40.11359 32.98711 3112 ft 40 kts 216°
2026-05-04 18:50 40.11270 32.98615 3109 ft 18 kts 248°
2026-05-04 18:51 40.11307 32.98516 3108 ft 19 kts 310°
2026-05-04 18:51 40.11410 32.98337 3108 ft 25 kts 306°
2026-05-04 18:51 40.11520 32.98169 3108 ft 24 kts 339°
2026-05-04 18:51 40.11661 32.98254 3109 ft 28 kts 36°
2026-05-04 18:52 40.12040 32.98616 3113 ft 106 kts 36°
2026-05-04 18:52 40.12823 32.99361 3121 ft 171 kts 35°
2026-05-04 18:52 40.13870 33.00353 3612 ft 196 kts 36°
2026-05-04 18:52 40.14994 33.01457 4436 ft 203 kts 37°
2026-05-04 18:53 40.16073 33.02559 5508 ft 196 kts 39°
2026-05-04 18:53 40.18011 33.04673 6159 ft 228 kts 39°
2026-05-04 18:53 40.20634 33.07499 6886 ft 254 kts 39°
2026-05-04 18:53 40.22848 33.11035 7942 ft 261 kts 65°
2026-05-04 18:54 40.24519 33.15679 8958 ft 279 kts 64°
2026-05-04 18:54 40.25373 33.18036 9446 ft 292 kts 64°
2026-05-04 18:54 40.26250 33.20447 10243 ft 295 kts 64°
2026-05-04 18:54 40.27161 33.22947 10599 ft 316 kts 64°
2026-05-04 18:55 40.28144 33.25640 10836 ft 338 kts 64°
2026-05-04 18:55 40.30221 33.31329 12164 ft 350 kts 64°
2026-05-04 18:55 40.31274 33.34215 12924 ft 353 kts 64°
2026-05-04 18:56 40.32339 33.37133 13639 ft 357 kts 64°
2026-05-04 18:56 40.33398 33.40039 14337 ft 360 kts 64°
2026-05-04 18:56 40.34482 33.43017 15011 ft 364 kts 64°
2026-05-04 18:56 40.35577 33.46028 15701 ft 367 kts 64°
2026-05-04 18:57 40.36681 33.49066 16368 ft 371 kts 64°
2026-05-04 18:57 40.37796 33.52135 16983 ft 375 kts 64°
2026-05-04 18:57 40.38920 33.55236 17612 ft 378 kts 64°
2026-05-04 18:57 40.40052 33.58363 18217 ft 382 kts 64°
2026-05-04 18:58 40.41196 33.61524 18804 ft 385 kts 64°
2026-05-04 18:58 40.42350 33.64714 19379 ft 389 kts 64°
2026-05-04 18:58 40.43496 33.67889 19940 ft 392 kts 64°
2026-05-04 18:58 40.44651 33.71140 20497 ft 395 kts 67°
2026-05-04 18:59 40.45609 33.74531 21037 ft 398 kts 72°
2026-05-04 18:59 40.46441 33.78011 21549 ft 401 kts 73°
2026-05-04 18:59 40.47257 33.81530 22055 ft 404 kts 73°
2026-05-04 18:59 40.48099 33.85065 22535 ft 407 kts 72°
2026-05-04 19:00 40.48975 33.88620 22995 ft 411 kts 72°
2026-05-04 19:00 40.49870 33.92196 23454 ft 414 kts 71°
2026-05-04 19:00 40.50792 33.95738 23888 ft 417 kts 69°
2026-05-04 19:00 40.51842 33.99301 24344 ft 419 kts 68°
2026-05-04 19:01 40.52948 34.02854 24783 ft 422 kts 67°
2026-05-04 19:01 40.54076 34.06426 25179 ft 425 kts 67°
2026-05-04 19:01 40.55208 34.10027 25585 ft 427 kts 68°
2026-05-04 19:01 40.56339 34.13653 25988 ft 430 kts 68°
2026-05-04 19:02 40.57467 34.17305 26358 ft 432 kts 68°
2026-05-04 19:02 40.58595 34.20979 26709 ft 435 kts 68°
2026-05-04 19:02 40.59713 34.24636 27052 ft 438 kts 68°
2026-05-04 19:02 40.60850 34.28368 27365 ft 441 kts 68°
2026-05-04 19:03 40.61992 34.32121 27736 ft 442 kts 68°
2026-05-04 19:03 40.63135 34.35885 28081 ft 444 kts 68°
2026-05-04 19:03 40.64284 34.39670 28396 ft 447 kts 68°
2026-05-04 19:03 40.65439 34.43480 28714 ft 449 kts 68°
2026-05-04 19:04 40.66598 34.47310 28994 ft 451 kts 68°
2026-05-04 19:04 40.67761 34.51159 29314 ft 453 kts 68°
2026-05-04 19:04 40.68910 34.54965 29596 ft 455 kts 68°
2026-05-04 19:04 40.70081 34.58849 29845 ft 458 kts 68°
2026-05-04 19:05 40.71258 34.62760 30076 ft 460 kts 68°
2026-05-04 19:05 40.72441 34.66697 30307 ft 463 kts 68°
2026-05-04 19:05 40.73629 34.70656 30599 ft 463 kts 68°
2026-05-04 19:05 40.74803 34.74573 31178 ft 457 kts 68°
2026-05-04 19:06 40.75961 34.78467 31542 ft 456 kts 69°
2026-05-04 19:06 40.77116 34.82373 31773 ft 458 kts 69°
2026-05-04 19:06 40.78259 34.86253 31966 ft 461 kts 69°
2026-05-04 19:06 40.79415 34.90183 32354 ft 458 kts 69°
2026-05-04 19:07 40.80562 34.94085 32786 ft 454 kts 69°
2026-05-04 19:07 40.81703 34.97971 33081 ft 454 kts 69°
2026-05-04 19:07 40.82846 35.01868 33276 ft 457 kts 69°
2026-05-04 19:07 40.83996 35.05793 33451 ft 459 kts 69°
2026-05-04 19:08 40.84757 35.08394 33611 ft 459 kts 69°
2026-05-04 19:08 40.86298 35.13667 33889 ft 461 kts 69°
2026-05-04 19:08 40.87060 35.16282 34098 ft 459 kts 69°
2026-05-04 19:08 40.88567 35.21453 34710 ft 452 kts 69°
2026-05-04 19:09 40.89691 35.25321 35024 ft 451 kts 69°
2026-05-04 19:09 40.90818 35.29200 35156 ft 453 kts 69°
2026-05-04 19:09 40.91950 35.33105 35272 ft 456 kts 69°
2026-05-04 19:09 40.93086 35.37030 35425 ft 458 kts 69°
2026-05-04 19:10 40.94222 35.40960 35707 ft 456 kts 69°
2026-05-04 19:10 40.94970 35.43551 35885 ft 455 kts 69°
2026-05-04 19:10 40.96099 35.47461 36110 ft 455 kts 69°
2026-05-04 19:10 40.97226 35.51365 36373 ft 453 kts 69°
2026-05-04 19:11 40.98710 35.56507 36732 ft 451 kts 69°
2026-05-04 19:11 40.99826 35.60381 36969 ft 450 kts 69°
2026-05-04 19:11 41.02062 35.68163 37002 ft 454 kts 69°
2026-05-04 19:12 41.05077 35.78483 36995 ft 448 kts 69°
2026-05-04 19:13 41.07332 35.86154 36989 ft 446 kts 69°
2026-05-04 19:13 41.09562 35.93794 37006 ft 444 kts 69°
2026-05-04 19:14 41.11744 36.01500 37014 ft 450 kts 69°
2026-05-04 19:14 41.13918 36.09275 37014 ft 455 kts 69°
2026-05-04 19:15 41.16126 36.17178 37000 ft 458 kts 69°
2026-05-04 19:15 41.18688 36.26352 36988 ft 447 kts 70°
2026-05-04 19:16 41.20469 36.32751 36996 ft 443 kts 70°
2026-05-04 19:16 41.22584 36.40367 37003 ft 442 kts 70°
2026-05-04 19:17 41.24697 36.47998 36994 ft 438 kts 70°
2026-05-04 19:17 41.26239 36.55742 37005 ft 433 kts 84°
2026-05-04 19:18 41.26077 36.63720 36654 ft 433 kts 96°
2026-05-04 19:18 41.25751 36.67676 36327 ft 428 kts 96°
2026-05-04 19:18 41.25414 36.71583 35956 ft 424 kts 96°
2026-05-04 19:18 41.25088 36.75455 35574 ft 420 kts 96°
2026-05-04 19:19 41.24779 36.79253 35190 ft 417 kts 96°
2026-05-04 19:19 41.24478 36.83071 34800 ft 414 kts 96°
2026-05-04 19:19 41.24185 36.86865 34418 ft 411 kts 96°
2026-05-04 19:19 41.23895 36.90630 34025 ft 408 kts 96°
2026-05-04 19:20 41.23607 36.94370 33650 ft 406 kts 96°
2026-05-04 19:20 41.23320 36.98089 33272 ft 403 kts 96°
2026-05-04 19:20 41.23033 37.01778 32892 ft 401 kts 96°
2026-05-04 19:20 41.22747 37.05444 32517 ft 398 kts 96°
2026-05-04 19:21 41.22461 37.09090 32144 ft 395 kts 96°
2026-05-04 19:21 41.22180 37.12665 31778 ft 393 kts 96°
2026-05-04 19:21 41.21896 37.16260 31411 ft 391 kts 96°
2026-05-04 19:21 41.21612 37.19840 31046 ft 388 kts 96°
2026-05-04 19:22 41.21330 37.23396 30684 ft 386 kts 96°
2026-05-04 19:22 41.21067 37.26933 30323 ft 384 kts 95°
2026-05-04 19:22 41.20817 37.30448 29966 ft 381 kts 95°
2026-05-04 19:22 41.20568 37.33942 29605 ft 379 kts 95°
2026-05-04 19:23 41.20320 37.37414 29240 ft 376 kts 95°
2026-05-04 19:23 41.20073 37.40814 28874 ft 374 kts 95°
2026-05-04 19:23 41.19824 37.44238 28505 ft 372 kts 95°
2026-05-04 19:23 41.19574 37.47641 28133 ft 369 kts 95°
2026-05-04 19:24 41.19324 37.51028 27774 ft 367 kts 96°
2026-05-04 19:24 41.19075 37.54390 27411 ft 365 kts 96°
2026-05-04 19:24 41.18855 37.57735 27051 ft 363 kts 94°
2026-05-04 19:24 41.18700 37.61066 26687 ft 360 kts 93°
2026-05-04 19:25 41.18529 37.64375 26337 ft 358 kts 95°
2026-05-04 19:25 41.18262 37.67610 25986 ft 356 kts 97°
2026-05-04 19:25 41.17961 37.70862 25634 ft 354 kts 97°
2026-05-04 19:25 41.17662 37.74094 25282 ft 352 kts 97°
2026-05-04 19:26 41.17370 37.77311 24933 ft 350 kts 97°
2026-05-04 19:26 41.17088 37.80509 24585 ft 348 kts 96°
2026-05-04 19:26 41.16811 37.83691 24238 ft 346 kts 96°
2026-05-04 19:26 41.16534 37.86854 23894 ft 344 kts 96°
2026-05-04 19:27 41.16265 37.90001 23552 ft 342 kts 96°
2026-05-04 19:27 41.16015 37.93131 23209 ft 340 kts 96°
2026-05-04 19:27 41.15776 37.96203 22874 ft 338 kts 96°
2026-05-04 19:27 41.15535 37.99302 22535 ft 337 kts 96°
2026-05-04 19:28 41.15293 38.02381 22200 ft 335 kts 96°
2026-05-04 19:28 41.15051 38.05443 21867 ft 333 kts 96°
2026-05-04 19:28 41.14809 38.08491 21532 ft 331 kts 96°
2026-05-04 19:28 41.14567 38.11522 21200 ft 329 kts 96°
2026-05-04 19:29 41.14325 38.14535 20870 ft 328 kts 96°
2026-05-04 19:29 41.14084 38.17534 20541 ft 326 kts 96°
2026-05-04 19:29 41.13846 38.20477 20218 ft 324 kts 96°
2026-05-04 19:29 41.13606 38.23442 19893 ft 323 kts 96°
2026-05-04 19:30 41.13365 38.26394 19568 ft 321 kts 96°
2026-05-04 19:30 41.13125 38.29327 19246 ft 319 kts 96°
2026-05-04 19:30 41.12883 38.32248 18929 ft 318 kts 96°
2026-05-04 19:30 41.12641 38.35154 18604 ft 316 kts 96°
2026-05-04 19:31 41.12400 38.38045 18280 ft 315 kts 96°
2026-05-04 19:31 41.12160 38.40920 17966 ft 313 kts 96°
2026-05-04 19:31 41.11921 38.43782 17651 ft 311 kts 96°
2026-05-04 19:31 41.11685 38.46589 17341 ft 310 kts 96°
2026-05-04 19:32 41.11447 38.49420 17027 ft 308 kts 96°
2026-05-04 19:32 41.11210 38.52240 16715 ft 307 kts 96°
2026-05-04 19:32 41.10972 38.55043 16408 ft 305 kts 96°
2026-05-04 19:32 41.10735 38.57834 16094 ft 304 kts 96°
2026-05-04 19:33 41.10499 38.60611 15785 ft 302 kts 96°
2026-05-04 19:33 41.10268 38.63374 15478 ft 301 kts 96°
2026-05-04 19:33 41.10042 38.66087 15175 ft 299 kts 96°
2026-05-04 19:33 41.09814 38.68824 14864 ft 298 kts 96°
2026-05-04 19:34 41.09583 38.71546 14566 ft 297 kts 97°
2026-05-04 19:34 41.09340 38.74256 14270 ft 295 kts 97°
2026-05-04 19:34 41.09094 38.76948 13961 ft 294 kts 97°
2026-05-04 19:34 41.08849 38.79630 13660 ft 292 kts 97°
2026-05-04 19:35 41.08604 38.82298 13360 ft 291 kts 97°
2026-05-04 19:35 41.08361 38.84952 13062 ft 290 kts 97°
2026-05-04 19:35 41.08119 38.87597 12764 ft 288 kts 97°
2026-05-04 19:35 41.07881 38.90192 12473 ft 287 kts 97°
2026-05-04 19:36 41.07640 38.92811 12175 ft 286 kts 97°
2026-05-04 19:36 41.07400 38.95418 11879 ft 284 kts 97°
2026-05-04 19:36 41.07160 38.98016 11585 ft 283 kts 97°
2026-05-04 19:36 41.06921 39.00602 11291 ft 282 kts 97°
2026-05-04 19:37 41.06683 39.03174 11000 ft 281 kts 97°
2026-05-04 19:37 41.06445 39.05734 10710 ft 279 kts 97°
2026-05-04 19:37 41.06210 39.08252 10433 ft 278 kts 97°
2026-05-04 19:37 41.05973 39.10786 10138 ft 277 kts 97°
2026-05-04 19:38 41.05793 39.13290 10002 ft 269 kts 87°
2026-05-04 19:38 41.06257 39.15696 9610 ft 274 kts 67°
2026-05-04 19:38 41.06988 39.18053 9223 ft 280 kts 68°
2026-05-04 19:38 41.07724 39.20457 8802 ft 283 kts 68°
2026-05-04 19:39 41.08460 39.22892 8380 ft 286 kts 68°
2026-05-04 19:39 41.09202 39.25357 7947 ft 290 kts 68°
2026-05-04 19:39 41.09939 39.27821 7502 ft 293 kts 68°
2026-05-04 19:39 41.10690 39.30344 7062 ft 296 kts 68°
2026-05-04 19:40 41.11447 39.32889 6611 ft 297 kts 68°
2026-05-04 19:40 41.12123 39.35464 6170 ft 297 kts 81°
2026-05-04 19:40 41.12059 39.38098 6277 ft 273 kts 103°
2026-05-04 19:40 41.11485 39.40348 6511 ft 241 kts 112°
2026-05-04 19:41 41.10877 39.42292 6572 ft 219 kts 113°
2026-05-04 19:41 41.10306 39.44095 6475 ft 205 kts 113°
2026-05-04 19:41 41.09792 39.45729 6394 ft 185 kts 112°
2026-05-04 19:41 41.09325 39.47226 6222 ft 166 kts 112°
2026-05-04 19:42 41.08919 39.48638 5737 ft 170 kts 110°
2026-05-04 19:42 41.08483 39.50172 5044 ft 184 kts 111°
2026-05-04 19:42 41.08010 39.51750 4620 ft 180 kts 112°
2026-05-04 19:42 41.07553 39.53235 4347 ft 168 kts 112°
2026-05-04 19:43 41.07122 39.54619 4106 ft 157 kts 112°
2026-05-04 19:43 41.05675 39.59251 3119 ft 138 kts 112°
2026-05-04 19:43 41.04208 39.63937 2548 ft 143 kts 112°
2026-05-04 19:43 41.02834 39.68318 1894 ft 162 kts 113°
2026-05-04 19:44 41.01972 39.71067 1304 ft 157 kts 113°
2026-05-04 19:44 41.01460 39.72698 1002 ft 145 kts 113°
2026-05-04 19:44 41.01081 39.73907 812 ft 141 kts 112°
2026-05-04 19:44 41.00702 39.75121 627 ft 144 kts 112°
2026-05-04 19:45 41.00317 39.76354 373 ft 146 kts 112°
2026-05-04 19:45 40.99934 39.77580 125 ft 141 kts 112°
2026-05-04 19:45 40.99606 39.78653 104 ft 99 kts 112°
2026-05-04 19:45 40.99436 39.79207 105 ft 20 kts 117°
2026-05-04 19:46 40.99423 39.79228 104 ft 0 kts 133°